N8QQ Weather Reports


Display with metric or nautical units.
time (UTC)temp
F
wind
direction
speed
MPH
gust
MPH
rain 1hr
in
rain 24hr
in
rain mn
in
humidity
%
barometer
mb
20260502164016 57 161 4.0 6.0 0.00 0.00 0.00 45 1013.2
20260502163031 55 84 3.0 6.0 0.00 0.00 0.00 47 1013.3
20260502162016 55 207 3.0 9.0 0.00 0.00 0.00 47 1013.3
20260502161039 56 226 3.0 6.0 0.00 0.00 0.00 47 1013.3
20260502152017 51 182 2.0 4.0 0.00 0.00 0.00 53 1013.5
20260502151041 51 29 2.0 4.0 0.00 0.00 0.00 53 1013.5
20260502123029 42 73 2.0 4.0 0.00 0.00 0.00 79 1013.0
20260502122032 40 63 2.0 4.0 0.00 0.00 0.00 83 1013.0
20260502121018 39 18 1.0 2.0 0.00 0.00 0.00 89 1013.1
20260502115024 36 67 0.0 1.0 0.00 0.00 0.00 97 1013.0
20260502114027 35 167 0.0 1.0 0.00 0.00 0.00 97 1012.8
20260502113032 35 0.0 0.0 0.00 0.00 0.00 97 1012.6
20260502112035 34 0.0 1.0 0.00 0.00 0.00 98 1012.5
20260502111019 34 0.0 0.0 0.00 0.00 0.00 98 1012.4
20260502110022 35 0.0 0.0 0.00 0.00 0.00 98 1012.4
20260502105025 35 0.0 0.0 0.00 0.00 0.00 99 1012.5
20260502104029 35 0.0 0.0 0.00 0.00 0.00 98 1012.7
20260502103031 34 0.0 0.0 0.00 0.00 0.00 96 1012.6
20260502102036 34 0.0 0.0 0.00 0.00 0.00 96 1012.5
20260502101020 35 0.0 0.0 0.00 0.00 0.00 98 1012.5
20260502091041 36 0.0 0.0 0.00 0.00 0.00 92 1012.5
20260502071021 38 0.0 0.0 0.00 0.00 0.00 92 1012.3
20260502070025 39 0.0 0.0 0.00 0.00 0.00 91 1012.3
20260502065029 39 0.0 0.0 0.00 0.00 0.00 93 1012.2
20260502064025 38 45 0.0 1.0 0.00 0.00 0.00 95 1012.6
20260502063016 38 0.0 0.0 0.00 0.00 0.00 95 1012.8
20260502062040 38 135 0.0 2.0 0.00 0.00 0.00 94 1012.8
20260502061017 38 0.0 0.0 0.00 0.00 0.00 94 1012.8
20260502060047 37 0.0 0.0 0.00 0.00 0.00 94 1012.9
20260502055029 37 0.0 0.0 0.00 0.00 0.00 93 1013.0
20260502054034 37 0.0 0.0 0.00 0.00 0.00 93 1012.8
20260502053017 37 0.0 0.0 0.00 0.00 0.00 93 1012.7
20260502052020 38 0.0 0.0 0.00 0.00 0.00 94 1012.7
20260502051023 38 0.0 0.0 0.00 0.00 0.00 94 1012.7
20260502050026 38 0.0 0.0 0.00 0.00 0.00 94 1012.7
20260502045050 37 0.0 0.0 0.00 0.00 0.00 89 1012.7
20260502044015 38 0.0 0.0 0.00 0.00 0.00 88 1012.8
20260502043017 38 0.0 0.0 0.00 0.00 0.00 88 1012.9
20260502042020 38 0.0 0.0 0.00 0.00 0.00 88 1012.9
20260502041024 39 0.0 0.0 0.00 0.00 0.00 88 1012.8
20260502040028 39 0.0 0.0 0.00 0.00 0.00 87 1012.8
20260502035030 40 0.0 0.0 0.00 0.00 0.00 87 1012.9
20260502034033 40 0.0 0.0 0.00 0.00 0.00 85 1013.0
20260502033018 40 0.0 0.0 0.00 0.00 0.00 84 1013.0
20260502032021 41 0.0 0.0 0.00 0.00 0.00 83 1013.0
20260502031024 41 0.0 0.0 0.00 0.00 0.00 83 1012.9
20260502030021 42 0.0 0.0 0.00 0.00 0.00 83 1012.9
20260502025019 42 0.0 0.0 0.00 0.00 0.00 83 1012.7
20260502024016 42 0.0 0.0 0.00 0.00 0.00 82 1012.6
20260502023019 42 0.0 0.0 0.00 0.00 0.00 82 1012.5
20260502022023 42 0.0 0.0 0.00 0.00 0.00 82 1012.4
20260502021026 43 0.0 0.0 0.00 0.00 0.00 80 1012.2
20260502020029 43 0.0 0.0 0.00 0.00 0.00 76 1012.1
20260502015032 44 0.0 0.0 0.00 0.00 0.00 75 1012.0
20260502014018 44 0.0 0.0 0.00 0.00 0.00 74 1012.0
20260502013021 45 0.0 0.0 0.00 0.00 0.00 72 1011.8
20260502012043 46 0.0 0.0 0.00 0.00 0.00 68 1011.6
20260502011026 46 0.0 0.0 0.00 0.00 0.00 67 1011.4
20260502010034 47 202 0.0 1.0 0.00 0.00 0.00 66 1011.2
20260502005037 48 175 0.0 1.0 0.00 0.00 0.00 65 1011.1
20260502004017 49 96 1.0 2.0 0.00 0.00 0.00 63 1010.7
20260502003040 49 172 0.0 2.0 0.00 0.00 0.00 61 1010.4
20260502002023 50 147 2.0 3.0 0.00 0.00 0.00 60 1010.4
20260502001026 50 168 1.0 3.0 0.00 0.00 0.00 59 1010.4
20260502000029 51 123 1.0 4.0 0.00 0.00 0.00 56 1010.4
20260501235051 52 236 2.0 5.0 0.00 0.00 0.00 56 1010.5
20260501234018 52 124 3.0 5.0 0.00 0.00 0.00 54 1010.4
20260501233021 53 93 2.0 5.0 0.00 0.00 0.00 54 1010.5
20260501232018 53 212 2.0 6.0 0.00 0.00 0.00 57 1010.6
20260501231015 53 186 1.0 4.0 0.00 0.00 0.00 57 1010.5
20260501230031 54 212 2.0 5.0 0.00 0.00 0.00 54 1010.5
20260501225036 56 223 3.0 6.0 0.00 0.00 0.00 53 1010.5
20260501224019 55 178 3.0 6.0 0.00 0.00 0.00 52 1010.4
20260501223022 56 74 3.0 5.0 0.00 0.00 0.00 52 1010.5
20260501222025 56 196 3.0 7.0 0.00 0.00 0.00 52 1010.5
20260501221028 55 182 2.0 4.0 0.00 0.00 0.00 55 1010.5
20260501220036 54 238 2.0 4.0 0.00 0.00 0.00 57 1010.5
20260501215016 54 241 3.0 5.0 0.00 0.00 0.00 58 1010.4
20260501214039 53 81 3.0 7.0 0.00 0.00 0.00 60 1010.4
20260501213043 54 149 3.0 6.0 0.00 0.00 0.00 60 1010.4
20260501212025 54 247 4.0 5.0 0.00 0.00 0.00 61 1010.4
20260501211029 54 104 3.0 6.0 0.00 0.00 0.00 61 1010.3
20260501210032 55 187 3.0 6.0 0.00 0.00 0.00 58 1010.3
20260501205017 55 247 4.0 7.0 0.00 0.00 0.00 57 1010.1
20260501204020 58 74 4.0 6.0 0.00 0.00 0.00 56 1010.3
20260501203023 57 161 4.0 9.0 0.00 0.00 0.00 57 1009.9
20260501202026 59 132 4.0 8.0 0.00 0.00 0.00 57 1009.9
20260501201043 59 144 4.0 8.0 0.00 0.00 0.00 58 1010.0
20260501200021 56 155 4.0 8.0 0.00 0.00 0.00 58 1010.0
20260501195038 58 136 3.0 7.0 0.00 0.00 0.00 58 1010.0
20260501194015 56 214 4.0 9.0 0.00 0.00 0.00 58 1010.1
20260501193044 55 191 4.0 7.0 0.00 0.00 0.00 58 1010.1
20260501192047 58 133 4.0 8.0 0.00 0.00 0.00 59 1010.0
20260501191031 56 121 4.0 7.0 0.00 0.00 0.00 61 1010.0
20260501190016 58 211 4.0 6.0 0.00 0.00 0.00 57 1010.1
20260501185058 58 105 4.0 9.0 0.00 0.00 0.00 58 1010.2
20260501184042 57 169 6.0 10.0 0.00 0.00 0.00 59 1010.0
20260501183025 57 185 4.0 8.0 0.00 0.00 0.00 60 1009.7
20260501182028 57 276 6.0 12.0 0.00 0.00 0.00 59 1009.6
20260501181031 58 257 4.0 10.0 0.00 0.00 0.00 60 1009.6
20260501180035 57 182 4.0 8.0 0.00 0.00 0.00 63 1009.7
20260501175039 54 224 5.0 11.0 0.00 0.00 0.00 66 1009.5